National Weather Service Raw Text Product

Displaying AFOS PIL: RWRIA Received: 2018-07-12 17:00 UTC


372 
ASUS43 KDMX 121706
RWRIA 

WEATHER ROUNDUP FOR IOWA
NATIONAL WEATHER SERVICE DES MOINES IA
1200 PM CDT THU JUL 12 2018

NOTE: "FAIR" INDICATES FEW OR NO CLOUDS BELOW 12,000 FEET WITH NO
SIGNIFICANT WEATHER AND/OR OBSTRUCTIONS TO VISIBILITY.

* - THESE STATIONS ARE NOT NWS STATIONS...THUS NOT UNDER NWS
QUALITY CONTROL.  THEY ALSO DO NOT REPORT WEATHER SUCH 
AS PRECIPITATION OR FOG.  

IAZ001>003-012>014-020>022-031>034-043>046-121800-
   NORTHWEST IOWA
  
CITY           SKY/WX    TMP DP  RH WIND       PRES   REMARKS
CARROLL *      SUNNY     90  77  66 S10G16    30.06F HX 102           
CHEROKEE *     SUNNY     89  76  65 SW12      30.03S HX  99           
DENISON *      SUNNY     88  77  70 VRB6G13   30.07F HX 100           
LE MARS *      SUNNY     90  75  62 S9G17     30.01F HX 100           
ORANGE CITY *  SUNNY     88  75  66 SW10      30.03S HX  97           
SHELDON *      PTSUNNY   88  75  66 SW14G20   30.01S HX  97           
SIOUX CITY     SUNNY     90  76  63 S10       30.01F HX 101           
STORM LAKE *   SUNNY     88  75  66 S12       30.05S HX  97           
$$
 
IAZ055>058-069>071-079>083-090>094-121800-
   SOUTHWEST IOWA
  
CITY           SKY/WX    TMP DP  RH WIND       PRES   REMARKS
ATLANTIC *     SUNNY     90  75  62 S12       30.07S HX 100           
AUDUBON *      SUNNY     90  77  66 S9        30.09S HX 102           
CLARINDA *     SUNNY     90  75  62 S8        30.09S HX 100           
COUNCIL BLFS * SUNNY     90  75  62 S10       30.06F HX 100           
CRESTON *      SUNNY     88  73  62 S9        30.11S HX  96           
HARLAN  *        N/A     88  77  70 S9        30.07S HX 100           
LAMONI         SUNNY     90  72  55 S6        30.10S HX  97           
RED OAK *      SUNNY     90  77  66 S7        30.07S HX 102           
SHENANDOAH *   SUNNY     90  77  66 S7        30.07S HX 102           
$$
 
IAZ047>049-059>061-072>074-084-121800-
   CENTRAL IOWA
  
CITY           SKY/WX    TMP DP  RH WIND       PRES   REMARKS
AMES           SUNNY     88  72  58 S9        30.07F HX  94           
ANKENY *       SUNNY     90  73  58 S9G16     30.08F HX  98           
BOONE *        MOSUNNY   86  73  66 S9        30.07S HX  93           
CHARITON *     SUNNY     90  73  58 S9        30.10S HX  98           
DES MOINES     PTSUNNY   89  74  60 S8        30.07S HX  98           
GRINNELL*      MOSUNNY   86  72  62 S8        30.11S HX  92           
KNOXVILLE *    CLOUDY    86  75  70 S9        30.08S HX  95           
MARSHALLTOWN   CLOUDY    87  77  72 SW8       30.08S HX  99           
NEWTON *       CLOUDY    86  75  70 S8        30.09S HX  95           
PELLA *        MOSUNNY   87  72  59 S8        30.10F HX  93           
PERRY *        FAIR      89  77  67 SW8       30.07S HX 101           
$$
 
IAZ004>006-015-016-023>025-035-036-121800-
   NORTH CENTRAL IOWA
  
CITY           SKY/WX    TMP DP  RH WIND       PRES   REMARKS
ALGONA *       CLOUDY    90  75  62 SW14      30.04F HX 100           
CLARION *      CLOUDY    88  73  62 SW12      30.06S HX  96           
ESTHERVILLE    CLOUDY    89  73  59 SW15G24   30.02S HX  97           
FORT DODGE *   MOSUNNY   89  76  65 SW10      30.06S HX 100           
MASON CITY     CLOUDY    88  74  63 S10       30.06F HX  96           
FOREST CITY *  FAIR      88  73  62 SW10G16   30.04F HX  96           
WEBSTER CITY * SUNNY     88  73  62 S10       30.05S HX  96           
IOWA FALLS *   FAIR      87  73  63 SW7       30.09S HX  94           
$$

IAZ007>011-017>019-026>030-037>042-050>054-066-121800-
   NORTHEAST IOWA
  
CITY           SKY/WX    TMP DP  RH WIND       PRES   REMARKS
CEDAR RAPIDS   FAIR      85  73  67 S9        30.11S HX  91           
CHARLES CITY * FAIR      84  72  65 S13       30.07F HX  89           
CLINTON *      FAIR      84  72  67 S12       30.15F HX  89           
DECORAH *      FAIR      82  72  69 SW9G15    30.08S HX  87           
DUBUQUE        FAIR      82  70  66 S14       30.14S HX  86           
MONTICELLO *   FAIR      86  73  66 S9G15     30.11F HX  93           
OELWEIN *      FAIR      84  73  70 S12       30.10F HX  91           
WATERLOO       FAIR      87  73  62 S10       30.07S HX  94           
$$
 
IAZ064-065-067-068-078-121800-
   EAST CENTRAL IOWA
  
CITY           SKY/WX    TMP DP  RH WIND       PRES   REMARKS
DAVENPORT      FAIR      84  70  62 S8        30.16F HX  88           
IOWA CITY      FAIR      87  72  60 SE8       30.13S HX  93           
MT. PLEASANT * CLOUDY    86  70  58 S9        30.13S HX  90           
MUSCATINE *    FAIR      86  72  62 SE8G14    30.13S HX  92           
QUAD CITIES    FAIR      86  72  62 S12       30.14S HX  92           
$$
 
IAZ062-063-075>077-085>089-095>099-121800-
   SOUTHEAST IOWA
  
CITY           SKY/WX    TMP DP  RH WIND       PRES   REMARKS
BURLINGTON     SUNNY     85  72  65 S9        30.14S HX  91           
FAIRFIELD *    CLOUDY    88  70  55 S10       30.11S HX  92           
FORT MADISON * SUNNY     86  75  70 S8        30.14F HX  95           
KEOKUK *       SUNNY     86  70  58 VRB5G12   30.13S HX  90           
OSKALOOSA *    FAIR      87  72  61 S6        30.11S HX  93           
CENTERVILLE *  FAIR      93  72  49 CALM      30.12S HX 100           
OTTUMWA        CLOUDY    89  71  55 S8        30.10F HX  95           
WASHINGTON *   MOSUNNY   88  73  62 S9        30.13S HX  96           
$$

ABBREVIATIONS USED IN REMARKS
   TC - TEMPERATURES IN CELSIUS
  WCI - WIND CHILL INDEX
   HX - HEAT INDEX
  VSB - VISIBILITY  
$$

  

158 
ASUS43 KDMX 121701
RWRIA 

WEATHER ROUNDUP FOR IOWA
NATIONAL WEATHER SERVICE DES MOINES IA
1200 PM CDT THU JUL 12 2018

NOTE: "FAIR" INDICATES FEW OR NO CLOUDS BELOW 12,000 FEET WITH NO
SIGNIFICANT WEATHER AND/OR OBSTRUCTIONS TO VISIBILITY.

* - THESE STATIONS ARE NOT NWS STATIONS...THUS NOT UNDER NWS
QUALITY CONTROL.  THEY ALSO DO NOT REPORT WEATHER SUCH 
AS PRECIPITATION OR FOG.  

IAZ001>003-012>014-020>022-031>034-043>046-121800-
   NORTHWEST IOWA
  
CITY           SKY/WX    TMP DP  RH WIND       PRES   REMARKS
CARROLL *      SUNNY     90  77  66 S10G16    30.06F HX 102           
CHEROKEE *     SUNNY     89  76  65 SW12      30.03S HX  99           
DENISON *      SUNNY     88  77  70 VRB6G13   30.07F HX 100           
LE MARS *      SUNNY     90  75  62 S9G17     30.01F HX 100           
ORANGE CITY *  SUNNY     88  75  66 SW10      30.03S HX  97           
SHELDON *      PTSUNNY   88  75  66 SW14G20   30.01S HX  97           
SIOUX CITY     SUNNY     90  76  63 S10       30.01F HX 101           
STORM LAKE *   SUNNY     88  75  66 S12       30.05S HX  97           
$$
 
IAZ055>058-069>071-079>083-090>094-121800-
   SOUTHWEST IOWA
  
CITY           SKY/WX    TMP DP  RH WIND       PRES   REMARKS
ATLANTIC *     SUNNY     90  75  62 S12       30.07S HX 100           
AUDUBON *      SUNNY     90  77  66 S9        30.09S HX 102           
CLARINDA *     SUNNY     90  75  62 S8        30.09S HX 100           
COUNCIL BLFS * SUNNY     90  75  62 S10       30.06F HX 100           
CRESTON *      SUNNY     88  73  62 S9        30.11S HX  96           
HARLAN  *        N/A     88  77  70 S9        30.07S HX 100           
LAMONI         SUNNY     90  72  55 S6        30.10S HX  97           
RED OAK *      SUNNY     90  77  66 S7        30.07S HX 102           
SHENANDOAH *   SUNNY     90  77  66 S7        30.07S HX 102           
$$
 
IAZ047>049-059>061-072>074-084-121800-
   CENTRAL IOWA
  
CITY           SKY/WX    TMP DP  RH WIND       PRES   REMARKS
AMES           SUNNY     88  72  58 S9        30.07F HX  94           
ANKENY *       SUNNY     90  73  58 S9G16     30.08F HX  98           
BOONE *        MOSUNNY   86  73  66 S9        30.07S HX  93           
CHARITON *     SUNNY     90  73  58 S9        30.10S HX  98           
DES MOINES     PTSUNNY   89  74  60 S8        30.07S HX  98           
GRINNELL*      MOSUNNY   86  72  62 S8        30.11S HX  92           
KNOXVILLE *    CLOUDY    86  75  70 S9        30.08S HX  95           
MARSHALLTOWN   CLOUDY    87  77  72 SW8       30.08S HX  99           
NEWTON *       CLOUDY    86  75  70 S8        30.09S HX  95           
PELLA *        MOSUNNY   87  72  59 S8        30.10F HX  93           
PERRY *        FAIR      89  77  67 SW8       30.07S HX 101           
$$
 
IAZ004>006-015-016-023>025-035-036-121800-
   NORTH CENTRAL IOWA
  
CITY           SKY/WX    TMP DP  RH WIND       PRES   REMARKS
ALGONA *       CLOUDY    90  75  62 SW14      30.04F HX 100           
CLARION *      CLOUDY    88  73  62 SW12      30.06S HX  96           
ESTHERVILLE    CLOUDY    89  73  59 SW15G24   30.02S HX  97           
FORT DODGE *   MOSUNNY   89  76  65 SW10      30.06S HX 100           
MASON CITY     CLOUDY    88  74  63 S10       30.06F HX  96           
FOREST CITY *  FAIR      88  73  62 SW10G16   30.04F HX  96           
IOWA FALLS *   FAIR      87  73  63 SW7       30.09S HX  94           
$$

IAZ007>011-017>019-026>030-037>042-050>054-066-121800-
   NORTHEAST IOWA
  
CITY           SKY/WX    TMP DP  RH WIND       PRES   REMARKS
CEDAR RAPIDS   FAIR      85  73  67 S9        30.11S HX  91           
CHARLES CITY * FAIR      84  72  65 S13       30.07F HX  89           
CLINTON *      FAIR      84  72  67 S12       30.15F HX  89           
DECORAH *      FAIR      82  72  69 SW9G15    30.08S HX  87           
DUBUQUE        FAIR      82  70  66 S14       30.14S HX  86           
MONTICELLO *   FAIR      86  73  66 S9G15     30.11F HX  93           
OELWEIN *      FAIR      84  73  70 S12       30.10F HX  91           
WATERLOO       FAIR      87  73  62 S10       30.07S HX  94           
$$
 
IAZ064-065-067-068-078-121800-
   EAST CENTRAL IOWA
  
CITY           SKY/WX    TMP DP  RH WIND       PRES   REMARKS
DAVENPORT      FAIR      84  70  62 S8        30.16F HX  88           
IOWA CITY      FAIR      87  72  60 SE8       30.13S HX  93           
MUSCATINE *    FAIR      86  72  62 SE8G14    30.13S HX  92           
QUAD CITIES    FAIR      86  72  62 S12       30.14S HX  92           
$$
 
IAZ062-063-075>077-085>089-095>099-121800-
   SOUTHEAST IOWA
  
CITY           SKY/WX    TMP DP  RH WIND       PRES   REMARKS
BURLINGTON     SUNNY     85  72  65 S9        30.14S HX  91           
FAIRFIELD *    CLOUDY    88  70  55 S10       30.11S HX  92           
FORT MADISON * SUNNY     86  75  70 S8        30.14F HX  95           
KEOKUK *       SUNNY     86  70  58 VRB5G12   30.13S HX  90           
OSKALOOSA *    FAIR      87  72  61 S6        30.11S HX  93           
CENTERVILLE *  FAIR      93  72  49 CALM      30.12S HX 100           
OTTUMWA        CLOUDY    89  71  55 S8        30.10F HX  95           
WASHINGTON *   MOSUNNY   88  73  62 S9        30.13S HX  96           
$$

ABBREVIATIONS USED IN REMARKS
   TC - TEMPERATURES IN CELSIUS
  WCI - WIND CHILL INDEX
   HX - HEAT INDEX
  VSB - VISIBILITY  
$$